Nave Neutrino — VRYU3 — position and weather

sailwx.info

Track history (hours):
 
Tides and Currents Weather Stations Pressure Air Temp Water Temp Dewpoint Dewpoint Depression Visibility Wind Speed Wind Dir Waves Ship Positions

Nave Neutrino

Last reported at 2017-Nov-19 08:57 UTC. Time now 2017-Nov-21 04:25 UTC.
Position N 43°27' W 010°30'.

Length 333 m; draft 20.6 m.

Type: Ship (hazmat cat A). MMSI: 477409000.

Date/timePositionNaut miles runAvg speedWind from/ knotsBaromVisibWave heightAir tempDewpointWater temp
2017-Nov-19 08:57N 43°27' W 010°30'611.2
2017-Nov-19 08:23N 43°21' W 010°33'5011.4
2017-Nov-19 04:03N 42°32' W 010°48'111.5
2017-Nov-19 03:58N 42°32' W 010°48'3211.6
2017-Nov-19 01:15N 42°01' W 010°57'1311.5
2017-Nov-19 00:09N 41°49' W 011°02'711.4
2017-Nov-18 23:33N 41°42' W 011°04'111.5
2017-Nov-18 23:26N 41°41' W 011°04'511.4
2017-Nov-18 23:00N 41°36' W 011°06'611.7
2017-Nov-18 22:30N 41°30' W 011°08'811.6
2017-Nov-18 21:47N 41°22' W 011°10'311.3
2017-Nov-18 21:30N 41°19' W 011°11'510.8
2017-Nov-18 21:00N 41°14' W 011°12'510.6
2017-Nov-18 20:30N 41°08' W 011°14'610.3
2017-Nov-18 19:53N 41°02' W 011°15'410.4
2017-Nov-18 19:30N 40°58' W 011°16'811.0
2017-Nov-18 18:44N 40°50' W 011°18'311.4
2017-Nov-18 18:26N 40°47' W 011°19'511.5
2017-Nov-18 18:01N 40°42' W 011°19'611.5
2017-Nov-18 17:29N 40°36' W 011°21'911.3
2017-Nov-18 16:42N 40°28' W 011°26'211.6
2017-Nov-18 16:30N 40°26' W 011°27'1211.7
2017-Nov-18 15:26N 40°14' W 011°31'1411.5
2017-Nov-18 14:11N 39°60' W 011°35'211.6
2017-Nov-18 13:59N 39°57' W 011°36'611.8
2017-Nov-18 13:30N 39°52' W 011°37'611.8
2017-Nov-18 13:00N 39°46' W 011°38'1711.7
2017-Nov-18 11:32N 39°29' W 011°43'56511.2
2017-Nov-16 08:58N 30°18' W 014°17'1511.1
2017-Nov-16 07:35N 30°04' W 014°23'111.2
2017-Nov-16 07:30N 30°03' W 014°23'711.2
2017-Nov-16 06:51N 29°55' W 014°25'611.3
2017-Nov-16 06:18N 29°49' W 014°26'411.3
2017-Nov-16 05:59N 29°46' W 014°27'511.2
2017-Nov-16 05:30N 29°41' W 014°29'710.9
2017-Nov-16 04:54N 29°35' W 014°34'411.1
2017-Nov-16 04:30N 29°32' W 014°37'811.2
2017-Nov-16 03:49N 29°27' W 014°44'3510.9
2017-Nov-16 00:39N 29°02' W 015°11'210.9
2017-Nov-16 00:27N 29°01' W 015°13'511.0
2017-Nov-16 00:00N 28°57' W 015°17'611.2
2017-Nov-15 23:30N 28°53' W 015°21'611.3
2017-Nov-15 23:00N 28°49' W 015°26'611.3
2017-Nov-15 22:31N 28°45' W 015°30'511.0
2017-Nov-15 22:01N 28°41' W 015°34'611.2
2017-Nov-15 21:30N 28°37' W 015°39'611.2
2017-Nov-15 21:01N 28°33' W 015°43'611.2
2017-Nov-15 20:30N 28°28' W 015°47'611.1
2017-Nov-15 20:00N 28°24' W 015°51'4 8.5
2017-Nov-15 19:30N 28°23' W 015°56'510.0
2017-Nov-15 19:00N 28°25' W 016°01'5 9.0
2017-Nov-15 18:30N 28°27' W 016°06'4 8.0
2017-Nov-15 18:00N 28°28' W 016°10'2 0.7
2017-Nov-15 15:15N 28°29' W 016°12'0 0.1
2017-Nov-15 15:00N 28°30' W 016°12'0 0.0
2017-Nov-15 14:15N 28°30' W 016°12'0 0.0
2017-Nov-15 13:48N 28°30' W 016°12'0 0.1
2017-Nov-15 13:30N 28°29' W 016°12'0 0.1
2017-Nov-15 10:36N 28°29' W 016°12'0 0.0
2017-Nov-15 03:27N 28°29' W 016°12'0 0.0
2017-Nov-15 02:42N 28°29' W 016°12'0 0.1
2017-Nov-15 02:27N 28°29' W 016°12'0 0.1
2017-Nov-14 21:51N 28°29' W 016°12'0 0.0
2017-Nov-14 20:54N 28°29' W 016°12'0 0.1
2017-Nov-14 17:57N 28°29' W 016°12'0 0.0
2017-Nov-14 17:24N 28°29' W 016°12'0 0.1
2017-Nov-14 16:59N 28°29' W 016°12'0 0.0
2017-Nov-14 16:29N 28°29' W 016°12'0 0.1
2017-Nov-14 15:01N 28°29' W 016°12'0 0.0
2017-Nov-14 14:59N 28°29' W 016°12'0 0.0
2017-Nov-14 13:20N 28°29' W 016°12'0 0.0
2017-Nov-14 07:40N 28°29' W 016°12'0 0.0
2017-Nov-14 06:38N 28°29' W 016°12'0 0.1
2017-Nov-14 06:26N 28°29' W 016°12'0 0.0
2017-Nov-14 02:29N 28°29' W 016°12'0 0.0
2017-Nov-14 01:58N 28°29' W 016°12'0 0.2
2017-Nov-14 00:17N 28°29' W 016°12'0 0.1
2017-Nov-13 23:59N 28°29' W 016°12'0 0.0
2017-Nov-13 23:17N 28°29' W 016°12'0 0.0
2017-Nov-13 22:47N 28°29' W 016°11'0 0.0
2017-Nov-13 22:16N 28°29' W 016°11'0 0.0
2017-Nov-13 21:35N 28°29' W 016°11'0 0.0
2017-Nov-13 01:59N 28°29' W 016°12'0 0.1
2017-Nov-13 01:29N 28°29' W 016°12'0 0.2
2017-Nov-13 00:58N 28°29' W 016°12'0 0.2
2017-Nov-13 00:28N 28°29' W 016°12'0 0.2
2017-Nov-12 23:02N 28°29' W 016°11'0 0.1
2017-Nov-12 22:32N 28°29' W 016°11'0 0.0
2017-Nov-12 22:29N 28°29' W 016°11'0 0.0
2017-Nov-12 21:47N 28°29' W 016°11'0 0.0
2017-Nov-12 21:17N 28°29' W 016°11'0 0.0
2017-Nov-12 20:59N 28°29' W 016°11'0 0.0
2017-Nov-12 20:29N 28°29' W 016°11'0 0.1
2017-Nov-12 19:59N 28°29' W 016°11'0 0.0
2017-Nov-12 19:28N 28°29' W 016°11'0 0.2
2017-Nov-12 18:58N 28°29' W 016°11'0 0.3
2017-Nov-12 18:17N 28°29' W 016°12'0 0.3
2017-Nov-12 17:32N 28°29' W 016°12'0 0.2
2017-Nov-12 17:23N 28°29' W 016°12'0 0.1
2017-Nov-12 16:37N 28°29' W 016°12'0 0.1
2017-Nov-12 16:07N 28°29' W 016°12'0 0.0
2017-Nov-12 15:53N 28°29' W 016°12'0 0.0
2017-Nov-12 15:22N 28°29' W 016°12'0 0.1
2017-Nov-12 14:49N 28°29' W 016°12'0 0.0
2017-Nov-12 14:26N 28°29' W 016°12'0 0.2
2017-Nov-12 14:00N 28°29' W 016°12'0 0.4
2017-Nov-12 13:30N 28°29' W 016°12'1 1.9
2017-Nov-12 13:00N 28°28' W 016°11'1 2.2
2017-Nov-12 12:30N 28°27' W 016°11'1 2.0
2017-Nov-12 12:01N 28°27' W 016°10'1 2.9
2017-Nov-12 11:31N 28°26' W 016°09'2 4.8
2017-Nov-12 11:01N 28°25' W 016°06'2 3.4
2017-Nov-12 10:31N 28°23' W 016°05'3 6.3
2017-Nov-12 10:00N 28°21' W 016°02'4 7.7
2017-Nov-12 09:30N 28°19' W 015°59'3 6.2
2017-Nov-12 08:58N 28°16' W 015°60'178 9.4
2017-Nov-11 13:57N 25°29' W 017°12'32 9.3
2017-Nov-11 10:32N 24°59' W 017°22'0 8.9
2017-Nov-11 10:29N 24°59' W 017°23'23 9.2
2017-Nov-11 08:00N 24°37' W 017°30'17 9.4
2017-Nov-11 06:13N 24°21' W 017°36'2 9.6
2017-Nov-11 06:00N 24°19' W 017°36'8 9.7
2017-Nov-11 05:12N 24°11' W 017°39'2 9.7
2017-Nov-11 04:59N 24°09' W 017°40'5 9.7
2017-Nov-11 04:29N 24°05' W 017°41'5 9.5
2017-Nov-11 03:59N 24°00' W 017°43'5 9.3
2017-Nov-11 03:29N 23°56' W 017°45'6 9.3
2017-Nov-11 02:54N 23°51' W 017°47'5 9.3
2017-Nov-11 02:24N 23°46' W 017°48'4 9.2
2017-Nov-11 01:58N 23°42' W 017°49'6 9.0
2017-Nov-11 01:18N 23°37' W 017°51'82 9.3
2017-Nov-10 16:25N 22°15' W 018°00'5 9.8
2017-Nov-10 15:55N 22°10' W 018°00'4 9.8
2017-Nov-10 15:29N 22°06' W 018°00'13 9.7
2017-Nov-10 14:09N 21°53' W 018°00'9 9.9
2017-Nov-10 13:15N 21°44' W 018°00'210.2
2017-Nov-10 13:01N 21°41' W 018°00'1010.4
2017-Nov-10 12:01N 21°31' W 018°00'0 9.4
2017-Nov-10 12:00N 21°31' W 018°00'12 9.7
2017-Nov-10 10:43N 21°18' W 017°59'  
Track history (hours):
 
Tides and Currents Weather Stations Pressure Air Temp Water Temp Dewpoint Dewpoint Depression Visibility Wind Speed Wind Dir Waves Ship Positions

Nave Neutrino

Last reported at 2017-Nov-19 08:57 UTC. Time now 2017-Nov-21 04:25 UTC.
Position N 43°27' W 010°30'.

Length 333 m; draft 20.6 m.

Type: Ship (hazmat cat A). MMSI: 477409000.

Date/timePositionNaut miles runAvg speedWind from/ knotsBaromVisibWave heightAir tempDewpointWater temp
2017-Nov-19 08:57N 43°27' W 010°30'611.2
2017-Nov-19 08:23N 43°21' W 010°33'5011.4
2017-Nov-19 04:03N 42°32' W 010°48'111.5
2017-Nov-19 03:58N 42°32' W 010°48'3211.6
2017-Nov-19 01:15N 42°01' W 010°57'1311.5
2017-Nov-19 00:09N 41°49' W 011°02'711.4
2017-Nov-18 23:33N 41°42' W 011°04'111.5
2017-Nov-18 23:26N 41°41' W 011°04'511.4
2017-Nov-18 23:00N 41°36' W 011°06'611.7
2017-Nov-18 22:30N 41°30' W 011°08'811.6
2017-Nov-18 21:47N 41°22' W 011°10'311.3
2017-Nov-18 21:30N 41°19' W 011°11'510.8
2017-Nov-18 21:00N 41°14' W 011°12'510.6
2017-Nov-18 20:30N 41°08' W 011°14'610.3
2017-Nov-18 19:53N 41°02' W 011°15'410.4
2017-Nov-18 19:30N 40°58' W 011°16'811.0
2017-Nov-18 18:44N 40°50' W 011°18'311.4
2017-Nov-18 18:26N 40°47' W 011°19'511.5
2017-Nov-18 18:01N 40°42' W 011°19'611.5
2017-Nov-18 17:29N 40°36' W 011°21'911.3
2017-Nov-18 16:42N 40°28' W 011°26'211.6
2017-Nov-18 16:30N 40°26' W 011°27'1211.7
2017-Nov-18 15:26N 40°14' W 011°31'1411.5
2017-Nov-18 14:11N 39°60' W 011°35'211.6
2017-Nov-18 13:59N 39°57' W 011°36'611.8
2017-Nov-18 13:30N 39°52' W 011°37'611.8
2017-Nov-18 13:00N 39°46' W 011°38'1711.7
2017-Nov-18 11:32N 39°29' W 011°43'56511.2
2017-Nov-16 08:58N 30°18' W 014°17'1511.1
2017-Nov-16 07:35N 30°04' W 014°23'111.2
2017-Nov-16 07:30N 30°03' W 014°23'711.2
2017-Nov-16 06:51N 29°55' W 014°25'611.3
2017-Nov-16 06:18N 29°49' W 014°26'411.3
2017-Nov-16 05:59N 29°46' W 014°27'511.2
2017-Nov-16 05:30N 29°41' W 014°29'710.9
2017-Nov-16 04:54N 29°35' W 014°34'411.1
2017-Nov-16 04:30N 29°32' W 014°37'811.2
2017-Nov-16 03:49N 29°27' W 014°44'3510.9
2017-Nov-16 00:39N 29°02' W 015°11'210.9
2017-Nov-16 00:27N 29°01' W 015°13'511.0
2017-Nov-16 00:00N 28°57' W 015°17'611.2
2017-Nov-15 23:30N 28°53' W 015°21'611.3
2017-Nov-15 23:00N 28°49' W 015°26'611.3
2017-Nov-15 22:31N 28°45' W 015°30'511.0
2017-Nov-15 22:01N 28°41' W 015°34'611.2
2017-Nov-15 21:30N 28°37' W 015°39'611.2
2017-Nov-15 21:01N 28°33' W 015°43'611.2
2017-Nov-15 20:30N 28°28' W 015°47'611.1
2017-Nov-15 20:00N 28°24' W 015°51'4 8.5
2017-Nov-15 19:30N 28°23' W 015°56'510.0
2017-Nov-15 19:00N 28°25' W 016°01'5 9.0
2017-Nov-15 18:30N 28°27' W 016°06'4 8.0
2017-Nov-15 18:00N 28°28' W 016°10'2 0.7
2017-Nov-15 15:15N 28°29' W 016°12'0 0.1
2017-Nov-15 15:00N 28°30' W 016°12'0 0.0
2017-Nov-15 14:15N 28°30' W 016°12'0 0.0
2017-Nov-15 13:48N 28°30' W 016°12'0 0.1
2017-Nov-15 13:30N 28°29' W 016°12'0 0.1
2017-Nov-15 10:36N 28°29' W 016°12'0 0.0
2017-Nov-15 03:27N 28°29' W 016°12'0 0.0
2017-Nov-15 02:42N 28°29' W 016°12'0 0.1
2017-Nov-15 02:27N 28°29' W 016°12'0 0.1
2017-Nov-14 21:51N 28°29' W 016°12'0 0.0
2017-Nov-14 20:54N 28°29' W 016°12'0 0.1
2017-Nov-14 17:57N 28°29' W 016°12'0 0.0
2017-Nov-14 17:24N 28°29' W 016°12'0 0.1
2017-Nov-14 16:59N 28°29' W 016°12'0 0.0
2017-Nov-14 16:29N 28°29' W 016°12'0 0.1
2017-Nov-14 15:01N 28°29' W 016°12'0 0.0
2017-Nov-14 14:59N 28°29' W 016°12'0 0.0
2017-Nov-14 13:20N 28°29' W 016°12'0 0.0
2017-Nov-14 07:40N 28°29' W 016°12'0 0.0
2017-Nov-14 06:38N 28°29' W 016°12'0 0.1
2017-Nov-14 06:26N 28°29' W 016°12'0 0.0
2017-Nov-14 02:29N 28°29' W 016°12'0 0.0
2017-Nov-14 01:58N 28°29' W 016°12'0 0.2
2017-Nov-14 00:17N 28°29' W 016°12'0 0.1
2017-Nov-13 23:59N 28°29' W 016°12'0 0.0
2017-Nov-13 23:17N 28°29' W 016°12'0 0.0
2017-Nov-13 22:47N 28°29' W 016°11'0 0.0
2017-Nov-13 22:16N 28°29' W 016°11'0 0.0
2017-Nov-13 21:35N 28°29' W 016°11'0 0.0
2017-Nov-13 01:59N 28°29' W 016°12'0 0.1
2017-Nov-13 01:29N 28°29' W 016°12'0 0.2
2017-Nov-13 00:58N 28°29' W 016°12'0 0.2
2017-Nov-13 00:28N 28°29' W 016°12'0 0.2
2017-Nov-12 23:02N 28°29' W 016°11'0 0.1
2017-Nov-12 22:32N 28°29' W 016°11'0 0.0
2017-Nov-12 22:29N 28°29' W 016°11'0 0.0
2017-Nov-12 21:47N 28°29' W 016°11'0 0.0
2017-Nov-12 21:17N 28°29' W 016°11'0 0.0
2017-Nov-12 20:59N 28°29' W 016°11'0 0.0
2017-Nov-12 20:29N 28°29' W 016°11'0 0.1
2017-Nov-12 19:59N 28°29' W 016°11'0 0.0
2017-Nov-12 19:28N 28°29' W 016°11'0 0.2
2017-Nov-12 18:58N 28°29' W 016°11'0 0.3
2017-Nov-12 18:17N 28°29' W 016°12'0 0.3
2017-Nov-12 17:32N 28°29' W 016°12'0 0.2
2017-Nov-12 17:23N 28°29' W 016°12'0 0.1
2017-Nov-12 16:37N 28°29' W 016°12'0 0.1
2017-Nov-12 16:07N 28°29' W 016°12'0 0.0
2017-Nov-12 15:53N 28°29' W 016°12'0 0.0
2017-Nov-12 15:22N 28°29' W 016°12'0 0.1
2017-Nov-12 14:49N 28°29' W 016°12'0 0.0
2017-Nov-12 14:26N 28°29' W 016°12'0 0.2
2017-Nov-12 14:00N 28°29' W 016°12'0 0.4
2017-Nov-12 13:30N 28°29' W 016°12'1 1.9
2017-Nov-12 13:00N 28°28' W 016°11'1 2.2
2017-Nov-12 12:30N 28°27' W 016°11'1 2.0
2017-Nov-12 12:01N 28°27' W 016°10'1 2.9
2017-Nov-12 11:31N 28°26' W 016°09'2 4.8
2017-Nov-12 11:01N 28°25' W 016°06'2 3.4
2017-Nov-12 10:31N 28°23' W 016°05'3 6.3
2017-Nov-12 10:00N 28°21' W 016°02'4 7.7
2017-Nov-12 09:30N 28°19' W 015°59'3 6.2
2017-Nov-12 08:58N 28°16' W 015°60'178 9.4
2017-Nov-11 13:57N 25°29' W 017°12'32 9.3
2017-Nov-11 10:32N 24°59' W 017°22'0 8.9
2017-Nov-11 10:29N 24°59' W 017°23'23 9.2
2017-Nov-11 08:00N 24°37' W 017°30'17 9.4
2017-Nov-11 06:13N 24°21' W 017°36'2 9.6
2017-Nov-11 06:00N 24°19' W 017°36'8 9.7
2017-Nov-11 05:12N 24°11' W 017°39'2 9.7
2017-Nov-11 04:59N 24°09' W 017°40'5 9.7
2017-Nov-11 04:29N 24°05' W 017°41'5 9.5
2017-Nov-11 03:59N 24°00' W 017°43'5 9.3
2017-Nov-11 03:29N 23°56' W 017°45'6 9.3
2017-Nov-11 02:54N 23°51' W 017°47'5 9.3
2017-Nov-11 02:24N 23°46' W 017°48'4 9.2
2017-Nov-11 01:58N 23°42' W 017°49'6 9.0
2017-Nov-11 01:18N 23°37' W 017°51'82 9.3
2017-Nov-10 16:25N 22°15' W 018°00'5 9.8
2017-Nov-10 15:55N 22°10' W 018°00'4 9.8
2017-Nov-10 15:29N 22°06' W 018°00'13 9.7
2017-Nov-10 14:09N 21°53' W 018°00'9 9.9
2017-Nov-10 13:15N 21°44' W 018°00'210.2
2017-Nov-10 13:01N 21°41' W 018°00'1010.4
2017-Nov-10 12:01N 21°31' W 018°00'0 9.4
2017-Nov-10 12:00N 21°31' W 018°00'12 9.7
2017-Nov-10 10:43N 21°18' W 017°59'  

Dump ship's entire track history